Scappoose, OR

5:54 PM PST on January 21, 2017 (GMT -0800)
Scappoose

Weather History for KSPB - March, 2013

Change the Weather History Date:

Friday, March 22, 2013

  Actual Average Record
Temperature  
Mean Temperature 38 °F -  
Max Temperature 47 °F - 64 °F (2001)
Min Temperature 30 °F - 28 °F (2014)
Degree Days  
Heating Degree Days 26    
Month to date heating degree days 441  
Since 1 July heating degree days 3822  
Cooling Degree Days 0    
Month to date cooling degree days 0  
Year to date cooling degree days 0  
Moisture  
Dew Point 32 °F    
Average Humidity 79    
Maximum Humidity 96    
Minimum Humidity 62    
Precipitation  
Precipitation 0.04 in - 0.55 in (2003)
Month to date precipitation 2.36  
Year to date precipitation 6.22  
Sea Level Pressure  
Sea Level Pressure 30.34 in    
Wind  
Wind Speed 4 mph (WNW)    
Max Wind Speed 17 mph    
Max Gust Speed 24 mph    
Visibility 10 miles    
Events Rain    
T = Trace of Precipitation, MM = Missing Value Source: NWS Daily Summary

Daily Weather History Graph

Daily Weather History Graph

Search for Another Location

Airport or City:

Trip Planner

Search our weather history database for the weather conditions in past years. The results will help you decide how hot, cold, wet, or windy it might be!

Date:

Astronomy

Mar. 22, 2013 Rise Set
Actual Time 7:09 AM PDT 7:27 PM PDT
Civil Twilight 6:40 AM PDT 7:56 PM PDT
Nautical Twilight 6:05 AM PDT 8:32 PM PDT
Astronomical Twilight 5:29 AM PDT 9:08 PM PDT
Moon 2:47 PM PDT 4:26 AM PDT
Length of Visible Light 13h 16m
Length of Day
12h 17m
Waxing Gibbous, 78% of the Moon is Illuminated
Mar 22
Waxing Gibbous
Mar 27
Full
Apr 2
Last Quarter
Apr 10
New
Apr 18
First Quarter

Hourly Weather History & Observations

Time (PDT) Temp. Windchill Dew Point Humidity Pressure Visibility Wind Dir Wind Speed Gust Speed Precip Events Conditions
12:53 AM 35.1 °F - 33.1 °F 92% 30.30 in 10.0 mi Calm Calm - 0.00 in Rain Light Rain
1:27 AM 35.6 °F 32.8 °F 33.8 °F 93% 30.30 in 10.0 mi North 3.5 mph - 0.00 in   Overcast
1:53 AM 34.0 °F 31.0 °F 32.0 °F 92% 30.30 in 10.0 mi SSW 3.5 mph - 0.01 in   Overcast
2:53 AM 34.0 °F 31.0 °F 32.0 °F 92% 30.31 in 10.0 mi WSW 3.5 mph - 0.00 in   Overcast
3:53 AM 32.0 °F - 30.0 °F 92% 30.31 in 10.0 mi Calm Calm - N/A   Partly Cloudy
4:31 AM 33.8 °F 30.8 °F 32.0 °F 93% 30.31 in 7.0 mi Variable 3.5 mph - 0.01 in Rain Light Rain
4:46 AM 33.8 °F - 32.0 °F 93% 30.31 in 10.0 mi Calm Calm - 0.01 in   Mostly Cloudy
4:53 AM 33.1 °F 30.0 °F 30.9 °F 92% 30.31 in 10.0 mi WSW 3.5 mph - 0.01 in   Scattered Clouds
5:53 AM 33.1 °F - 30.9 °F 92% 30.32 in 10.0 mi Calm Calm - N/A   Overcast
6:53 AM 32.0 °F - 30.9 °F 96% 30.32 in 10.0 mi Calm Calm - N/A   Mostly Cloudy
7:53 AM 33.1 °F - 30.9 °F 92% 30.33 in 10.0 mi Calm Calm - N/A   Overcast
8:53 AM 36.0 °F - 33.1 °F 89% 30.34 in 10.0 mi Calm Calm - N/A   Scattered Clouds
9:53 AM 39.9 °F - 34.0 °F 79% 30.35 in 10.0 mi Calm Calm - N/A   Overcast
10:53 AM 42.1 °F - 33.1 °F 70% 30.35 in 10.0 mi Calm Calm - N/A   Overcast
11:53 AM 44.1 °F 40.1 °F 32.0 °F 63% 30.35 in 10.0 mi NNW 6.9 mph - N/A   Scattered Clouds
12:53 PM 43.0 °F 41.3 °F 32.0 °F 65% 30.35 in 10.0 mi NNE 3.5 mph - N/A   Overcast
1:53 PM 44.1 °F 39.0 °F 32.0 °F 63% 30.35 in 10.0 mi NW 9.2 mph - 0.00 in Rain Light Rain
2:53 PM 46.0 °F 41.0 °F 34.0 °F 63% 30.34 in 10.0 mi West 10.4 mph - 0.00 in   Scattered Clouds
3:53 PM 39.9 °F 32.1 °F 34.0 °F 79% 30.35 in 6.0 mi NW 13.8 mph 24.2 mph 0.00 in Rain Light Rain
4:03 PM 39.2 °F 33.6 °F 33.8 °F 81% 30.35 in 5.0 mi NW 8.1 mph 16.1 mph 0.02 in Rain Light Rain
4:24 PM 42.8 °F 38.0 °F 35.6 °F 76% 30.34 in 10.0 mi West 8.1 mph - 0.02 in   Overcast
4:53 PM 44.1 °F 38.1 °F 34.0 °F 68% 30.34 in 10.0 mi WNW 11.5 mph 17.3 mph 0.02 in   Overcast
5:53 PM 41.0 °F 34.7 °F 32.0 °F 70% 30.35 in 8.0 mi North 10.4 mph 19.6 mph 0.00 in Rain Light Rain
6:01 PM 42.8 °F 39.3 °F 33.8 °F 70% 30.35 in 10.0 mi NNW 5.8 mph - 0.00 in   Mostly Cloudy
6:53 PM 39.0 °F - 33.1 °F 79% 30.35 in 10.0 mi Calm Calm - 0.00 in Rain Light Rain
7:53 PM 39.0 °F - 33.1 °F 79% 30.36 in 10.0 mi Calm Calm - N/A   Mostly Cloudy
8:53 PM 34.0 °F 31.0 °F 30.9 °F 89% 30.38 in 10.0 mi West 3.5 mph - N/A   Clear
9:53 PM 30.9 °F - 28.9 °F 92% 30.39 in 10.0 mi Calm Calm - N/A   Partly Cloudy
10:53 PM 30.9 °F - 28.9 °F 92% 30.40 in 10.0 mi Calm Calm - N/A   Clear